EW7458 Weather Reports


Display with metric or nautical units.
time (UTC)temp
F
wind
direction
speed
MPH
gust
MPH
rain 1hr
in
rain 24hr
in
rain mn
in
humidity
%
barometer
mb
20260507134024 58 347 3.0 5.0 0.00 0.27 0.03 56 1008.7
20260507133021 57 301 1.0 3.0 0.00 0.27 0.03 61 1008.8
20260507132019 57 238 2.0 3.0 0.00 0.27 0.03 62 1009.0
20260507131029 56 297 2.0 4.0 0.00 0.27 0.03 64 1009.1
20260507130026 55 338 2.0 6.0 0.00 0.27 0.03 66 1009.1
20260507125024 55 329 1.0 4.0 0.00 0.27 0.03 68 1009.1
20260507124022 54 6 3.0 6.0 0.00 0.27 0.03 67 1009.1
20260507123020 53 343 3.0 6.0 0.00 0.27 0.03 71 1009.2
20260507122029 52 343 2.0 4.0 0.00 0.27 0.03 75 1009.3
20260507121047 51 291 1.0 3.0 0.00 0.27 0.03 81 1009.3
20260507120025 50 319 1.0 4.0 0.00 0.27 0.03 86 1009.3
20260507115025 49 293 1.0 2.0 0.00 0.27 0.03 89 1009.3
20260507114021 48 0.0 0.0 0.00 0.27 0.03 90 1009.3
20260507113029 48 0.0 0.0 0.00 0.27 0.03 90 1009.1
20260507112028 48 0.0 0.0 0.00 0.27 0.03 90 1009.1
20260507111025 48 0.0 0.0 0.00 0.27 0.03 91 1009.2
20260507110025 47 0.0 0.0 0.00 0.27 0.03 93 1009.1
20260507105021 47 0.0 0.0 0.00 0.27 0.03 93 1008.9
20260507104019 47 0.0 0.0 0.00 0.27 0.03 93 1008.6
20260507103028 47 0.0 0.0 0.00 0.27 0.03 94 1008.6
20260507102046 47 0.0 0.0 0.00 0.27 0.03 94 1008.5
20260507101205 47 0.0 0.0 0.00 0.27 0.03 94 1008.6
20260507100023 47 0.0 0.0 0.00 0.27 0.03 94 1008.4
20260507095020 47 0.0 0.0 0.00 0.27 0.03 94 1008.6
20260507094029 47 0.0 0.0 0.00 0.27 0.03 94 1008.8
20260507093027 47 0.0 0.0 0.00 0.27 0.03 94 1008.7
20260507092025 47 0.0 0.0 0.00 0.27 0.03 95 1008.6
20260507091023 48 0.0 0.0 0.00 0.27 0.03 95 1008.7
20260507090041 48 0.0 0.0 0.00 0.27 0.03 95 1008.9
20260507085019 48 346 0.0 1.0 0.02 0.27 0.03 95 1008.7
20260507084028 48 204 0.0 1.0 0.03 0.27 0.03 94 1008.5
20260507083026 48 0.0 0.0 0.03 0.27 0.03 93 1008.4
20260507082024 49 0.0 0.0 0.03 0.27 0.03 93 1008.3
20260507081022 49 0.0 0.0 0.03 0.27 0.03 92 1008.3
20260507080020 49 0.0 0.0 0.03 0.27 0.03 91 1008.0
20260507075029 50 234 0.0 2.0 0.01 0.25 0.01 90 1008.3
20260507074047 50 202 1.0 3.0 0.00 0.24 0.00 90 1008.5
20260507073024 50 0.0 0.0 0.00 0.24 0.00 90 1008.3
20260507072023 50 0.0 0.0 0.00 0.24 0.00 90 1007.9
20260507071020 50 160 0.0 2.0 0.00 0.24 0.00 90 1007.9
20260507070030 50 218 1.0 3.0 0.00 0.24 0.00 91 1008.0
20260507065027 50 0.0 0.0 0.00 0.24 0.00 90 1007.9
20260507064025 50 192 0.0 1.0 0.00 0.24 0.00 90 1007.7
20260507063045 51 0.0 0.0 0.00 0.24 0.00 90 1007.9
20260507062022 51 310 0.0 2.0 0.00 0.24 0.00 90 1007.6
20260507061019 51 286 0.0 2.0 0.00 0.24 0.00 91 1007.6
20260507060048 51 0.0 0.0 0.00 0.24 0.00 91 1007.7
20260507055026 51 0.0 0.0 0.00 0.24 0.00 92 1008.1
20260507054025 52 290 1.0 3.0 0.00 0.24 0.00 92 1008.2
20260507053038 52 0.0 0.0 0.00 0.24 0.00 93 1008.3
20260507052020 52 0.0 0.0 0.00 0.24 0.00 93 1008.2
20260507051032 52 0.0 0.0 0.00 0.24 0.00 92 1008.1
20260507050027 52 0.0 0.0 0.00 0.24 0.00 92 1008.1
20260507045045 53 341 1.0 3.0 0.00 0.24 0.00 92 1007.9
20260507044023 53 0.0 0.0 0.00 0.24 0.00 94 1008.0
20260507043102 53 328 1.0 2.0 0.00 0.24 0.00 93 1008.0
20260507042039 54 344 1.0 2.0 0.00 0.24 0.00 94 1008.1
20260507041029 55 312 0.0 2.0 0.00 0.24 0.00 94 1008.2
20260507040027 55 0.0 0.0 0.00 0.24 0.00 94 1008.0
20260507035107 55 0.0 0.0 0.00 0.24 0.24 94 1007.8
20260507034022 56 260 0.0 1.0 0.00 0.24 0.24 95 1007.5
20260507033040 56 313 2.0 4.0 0.00 0.24 0.24 96 1007.3
20260507032031 57 0.0 0.0 0.00 0.24 0.24 97 1007.2
20260507031026 57 0.0 0.0 0.00 0.24 0.24 97 1007.0
20260507030025 58 0.0 0.0 0.00 0.24 0.24 97 1007.1
20260507025023 59 0.0 0.0 0.00 0.24 0.24 97 1007.1
20260507024021 59 328 0.0 1.0 0.00 0.24 0.24 97 1006.9
20260507023029 59 0.0 0.0 0.00 0.24 0.24 97 1006.9
20260507022027 59 0.0 0.0 0.00 0.24 0.24 97 1006.7
20260507021025 59 201 0.0 3.0 0.00 0.24 0.24 97 1006.4
20260507020026 59 184 1.0 8.0 0.00 0.24 0.24 97 1006.5
20260507015021 59 213 3.0 5.0 0.00 0.24 0.24 97 1006.4
20260507014021 59 188 3.0 7.0 0.00 0.24 0.24 97 1006.5
20260507013030 59 205 2.0 5.0 0.00 0.24 0.24 97 1006.5
20260507012026 59 210 3.0 8.0 0.00 0.24 0.24 97 1006.5
20260507011024 59 200 3.0 8.0 0.00 0.24 0.24 97 1006.5
20260507010042 59 222 2.0 4.0 0.00 0.24 0.24 97 1006.5
20260507005020 59 252 1.0 2.0 0.00 0.24 0.24 97 1006.5
20260507004029 59 195 1.0 4.0 0.00 0.24 0.24 97 1006.4
20260507003047 59 207 1.0 5.0 0.00 0.24 0.24 97 1006.2
20260507002025 59 200 1.0 3.0 0.01 0.24 0.24 97 1006.3
20260507001025 59 217 3.0 6.0 0.01 0.24 0.24 97 1006.4
20260507000022 59 216 2.0 4.0 0.02 0.24 0.24 97 1006.2
20260506235019 59 222 2.0 6.0 0.03 0.24 0.24 97 1006.2
20260506234029 59 223 2.0 3.0 0.04 0.24 0.24 97 1006.1
20260506233026 59 188 3.0 8.0 0.04 0.24 0.24 96 1006.1
20260506232144 59 226 1.0 3.0 0.03 0.23 0.23 96 1006.2
20260506231042 59 198 2.0 8.0 0.04 0.23 0.23 96 1006.2
20260506230019 59 240 2.0 5.0 0.03 0.22 0.22 96 1006.3
20260506225029 59 207 3.0 6.0 0.03 0.21 0.21 96 1006.5
20260506224027 59 171 3.0 5.0 0.03 0.20 0.20 95 1006.4
20260506223024 59 206 3.0 7.0 0.04 0.20 0.20 95 1006.4
20260506222024 59 233 3.0 6.0 0.04 0.20 0.20 95 1006.4
20260506221021 59 213 2.0 5.0 0.04 0.19 0.19 95 1006.5
20260506220030 60 240 4.0 7.0 0.05 0.19 0.19 95 1006.5
20260506215028 60 273 3.0 6.0 0.05 0.18 0.18 95 1006.6
20260506214025 60 265 4.0 6.0 0.06 0.17 0.17 94 1006.5
20260506213023 60 255 4.0 6.0 0.06 0.16 0.16 94 1006.6
20260506212021 60 257 4.0 7.0 0.07 0.16 0.16 94 1006.7
20260506211019 60 267 4.0 9.0 0.08 0.15 0.15 94 1006.9
20260506210028 60 277 3.0 5.0 0.07 0.14 0.14 94 1006.9
20260506205026 61 241 4.0 6.0 0.06 0.13 0.13 94 1007.0
20260506204024 61 263 3.0 5.0 0.04 0.11 0.11 93 1007.1
20260506203024 61 266 3.0 6.0 0.03 0.10 0.10 92 1007.1
20260506202020 62 254 4.0 8.0 0.02 0.09 0.09 91 1007.1
20260506201030 62 261 4.0 8.0 0.01 0.07 0.07 89 1007.2
20260506200030 62 266 4.0 9.0 0.01 0.07 0.07 88 1007.2
20260506195025 63 267 3.0 8.0 0.02 0.07 0.07 88 1007.3
20260506194023 62 281 3.0 5.0 0.03 0.07 0.07 90 1007.2
20260506193021 62 257 3.0 5.0 0.04 0.07 0.07 91 1007.1
20260506192020 63 244 1.0 3.0 0.05 0.07 0.07 91 1007.2
20260506191027 63 255 1.0 4.0 0.05 0.06 0.06 89 1007.0
20260506190026 63 266 2.0 4.0 0.06 0.06 0.06 89 1007.4
20260506185024 63 264 3.0 8.0 0.05 0.05 0.05 88 1007.6
20260506184103 64 252 0.0 2.0 0.04 0.04 0.04 88 1007.6
20260506183020 64 257 1.0 3.0 0.03 0.03 0.03 86 1007.8
20260506182028 65 240 1.0 2.0 0.02 0.02 0.02 83 1008.0
20260506181027 66 290 0.0 1.0 0.01 0.01 0.01 77 1007.9
20260506180045 67 0.0 0.0 0.00 0.00 0.00 73 1007.8
20260506175023 69 338 1.0 4.0 0.00 0.00 0.00 69 1007.8
20260506174021 70 258 3.0 7.0 0.00 0.00 0.00 61 1007.8
20260506173029 72 276 4.0 6.0 0.00 0.00 0.00 56 1007.5
20260506172028 73 300 3.0 7.0 0.00 0.00 0.00 55 1007.4
20260506171025 73 274 4.0 6.0 0.00 0.00 0.00 54 1007.5
20260506170023 73 287 7.0 14.0 0.00 0.00 0.00 54 1007.7
20260506165022 72 279 6.0 9.0 0.00 0.00 0.00 55 1007.8
20260506164019 72 193 6.0 9.0 0.00 0.00 0.00 57 1008.0
20260506163048 71 234 5.0 11.0 0.00 0.00 0.00 59 1008.2
20260506162027 71 216 5.0 8.0 0.00 0.00 0.00 59 1008.3
20260506161024 71 248 5.0 10.0 0.00 0.00 0.00 60 1008.5
20260506160022 70 227 5.0 8.0 0.00 0.00 0.00 61 1008.8
20260506155020 70 225 5.0 9.0 0.00 0.00 0.00 61 1009.1
20260506154029 70 210 5.0 8.0 0.00 0.00 0.00 62 1009.2
20260506153027 69 229 3.0 6.0 0.00 0.00 0.00 62 1009.4
20260506152025 70 214 5.0 8.0 0.00 0.00 0.00 62 1009.5
20260506151043 70 210 5.0 12.0 0.00 0.00 0.00 61 1009.6
20260506150021 70 207 6.0 10.0 0.00 0.00 0.00 62 1009.5
20260506145041 70 196 5.0 10.0 0.00 0.00 0.00 63 1009.7
20260506144028 69 230 4.0 8.0 0.00 0.00 0.00 63 1009.5
20260506143027 69 215 6.0 10.0 0.00 0.00 0.00 63 1009.4
20260506142024 70 189 4.0 9.0 0.00 0.00 0.00 64 1009.5
20260506141021 69 227 5.0 10.0 0.00 0.00 0.00 65 1009.2
20260506140100 68 210 5.0 11.0 0.00 0.00 0.00 67 1009.3
20260506135028 67 236 4.0 7.0 0.00 0.00 0.00 68 1009.4